レモン彗星

C/2017 S7 ( Lemmon )

English version
Home page
Updated on August 28, 2020

---------------------------------------------------------------------

・ プロフィール

発見日 2017年9月26日
発見光度 19.6等
発見者 R. G. Matheny (Mount Lemmon survey)

・ 写真集

・ 軌道要素

Epoch 2017 June 16.0 TT = JDT 2457920.5
T 2017 May 28.00671 TT                                  Rudenko
q   7.6144574            (2000.0)            P               Q
z  -0.0003044      Peri.  187.75483     +0.19969451     +0.53587309
 +/-0.0000018      Node   262.78688     +0.93753720     +0.13889625
e   1.0023180      Incl.  124.21976     +0.28486153     -0.83279521
From 154 observations 2016 Jan. 13-2018 Dec. 4, mean residual 0".6.

・ 光度変化

        m1 = 6.2 + 5 logΔ + 10.0 log r

---------------------------------------------------------------------

軌道要素はM.P.E.C. 2020-Q175に掲載されたものです。
光度グラフはComet for Windowsで作成したものです。

---------------------------------------------------------------------

Copyright(C) Seiichi Yoshida (comet@aerith.net). All rights reserved.